Regional Weather Roundup
Issued by NWS Newport/Morehead, NC

Current Version | Previous Version | Graphics & Text | Print | Product List | Glossary Off
Versions: 1 2 3 4 5 6 7 8 9 10 11 12 13 14 15 16 17 18 19 20 21 22 23 24 25 26 27 28 29 30 31 32 33 34 35 36 37 38 39 40 41 42 43 44 45 46 47 48 49 50

000
ASUS42 KMHX 290310
RWRMHX
WEATHER ROUNDUP FOR EASTERN NORTH CAROLINA
NATIONAL WEATHER SERVICE NEWPORT/MOREHEAD CITY NC
1000 PM EST WED JAN 28 2015

NOTE: "FAIR" INDICATES FEW OR NO CLOUDS BELOW 12,000 FEET
WITH NO SIGNIFICANT WEATHER AND/OR OBSTRUCTIONS TO VISIBILITY

NCZ015>017-031-032-045>047-102-103-290400-
NORTH COAST

CITY           SKY/WX    TMP DP  RH WIND       PRES   REMARKS
EDENTON        CLEAR     30  19  65 N3        30.31S
ELIZABETH CITY CLEAR     27  13  55 NW7       30.31R
KITTY HAWK     CLEAR     34  15  45 NW6       30.29R
MANTEO         CLEAR     36  18  48 N8        30.31R

$$

NCZ045>047-081-094-103-104-290400-
CENTRAL COAST

CITY           SKY/WX    TMP DP  RH WIND       PRES   REMARKS
FRISCO         CLEAR     38  15  39 VRB7      30.30R
SWANQUARTER    NOT AVBL

$$

NCZ095-097-098-100-101-290400-
SOUTHERN COAST

CITY           SKY/WX    TMP DP  RH WIND       PRES   REMARKS
BEAUFORT       CLEAR     34  20  56 N6        30.32R
CEDAR ISLAND   NOT AVBL
JACKSONVILLE   CLEAR     27  21  78 CALM      30.33R
PINEY ISLAND     N/A    N/A N/A N/A MISG      30.31R
WILMINGTON     CLEAR     30  22  72 CALM      30.32S


$$

NCZ011>013-027>030-043-044-078>080-089-090>093-098-290400-
COASTAL PLAIN

CITY           SKY/WX    TMP DP  RH WIND       PRES   REMARKS
AHOSKIE        CLEAR     24  16  73 CALM      30.33R
CLINTON        CLEAR     28  23  81 CALM      30.34R
ELIZABETHTOWN  CLEAR     28  20  70 CALM      30.33S
GOLDSBORO      CLEAR     29  25  84 CALM      30.31R
GREENVILLE     CLEAR     28  23  80 CALM      30.33R
HAVELOCK       CLEAR     27  20  75 SW3       30.33R
KENANSVILLE    CLEAR     26  20  79 CALM      30.34R
KINSTON        CLEAR     26  21  82 CALM      30.33S
NEW BERN       CLEAR     29  20  69 CALM      30.34R
RICHLANDS      CLEAR     25  19  80 CALM      30.33R
ROCKY MOUNT    CLEAR     26  17  68 CALM      30.33R
WASHINGTON     CLEAR     26  19  72 CALM      30.32S
WHITEVILLE     CLEAR     30  19  63 CALM      30.33S

$$

AMZ130-135-150-152-154-156-158-170-250-252-270-ANZ085-086-088-633-658-670-290400-
MARINE OBSERVATIONS

STATION/POSITION TIME  TEMP    WIND        PRES    WAVE   SWELL
                       AIR SEA DIR/SP/G            HT/PER HT/PER
                 (UTC) (F)     (DEG/KT/KT) (MB)    (FT/S) (FT/S)
CHESAPEAKE LIGHT 0200   35     350/ 23/ 25 1025.7
64 E VA BEACH    0300   38 50  350/ 21/ 25 1024.2    8/ 6   3/11
DUCK             0300   36 41  330/ 12/ 15 1025.1
2 E DUCK         0300      42                N/A     5/ 6   2/13
10 NE DUCK       0300      45                N/A     6/ 7   2/13
OREGON INLET     0300   34 42  320/  7/  9 1025.8
13E OREGON INLT  0300      45                N/A     8/11   3/11
HATTERAS CG      0300   40 44  340/ 18/ 19 1026.1
DIAMOND BUOY     0300   41 58  340/ 17/ 21 1025.2    5/10   3/10
17 S OCRACOKE    NOT AVBL
CAPE LOOKOUT     0200   40     340/ 13/ 15 1025.9
BEAUFORT LAB     0300   36 46  330/  4/  6 1025.5
27 SE WRIGHTSVLE NOT AVBL
5 SE WRIGHTSVLE  0200   44 53  360/ 12/ 14 1026.5
225 S CAPE HAT   0225   56 71  350/ 19/ 27 1022.9   11/ 9   5/11
41 SE CHARLESTON 0300   49 66   10/ 14/ 17 1026.5    4/ 6   2/ 6

$$


USA.gov is the U.S. government's official web portal to all federal, state and local government web resources and services.